Temperature
7 7 7 7 7 7 7 7 7 8 9 10 10 8 7 7 7 6 5 5 5 7 8 9 9 9 9 8 8 8 8 7 7 6 6 6 5 4 3 3 2 2 1 1
7 8 8 8 8 8 8 8 8 8 9 10 9 7 6 6 6 6 5 5 5 7 8 9 9 9 8 8 8 7 7 7 6 6 5 5 4 3 3 2 2 1 1 0
7 8 8 8 9 9 8 9 8 9 10 10 9 8 7 7 7 6 5 5 6 7 9 9 9 8 8 8 7 7 6 6 6 5 5 4 3 2 2 1 1 1 0 -0
7 7 8 10 10 9 9 10 10 10 10 10 10 9 8 8 7 7 6 6 7 8 8 8 8 8 8 7 7 6 6 5 5 4 4 3 2 2 1 1 1 0 -0 -1
7 8 8 10 10 9 9 10 10 10 10 9 9 9 8 9 8 8 7 8 8 9 9 9 8 8 7 6 6 5 5 5 4 4 3 2 2 1 1 0 0 -0 -1 -1
7 8 8 10 10 10 10 11 11 10 10 9 10 11 10 9 9 9 8 8 8 8 9 8 8 7 7 6 5 5 5 4 3 3 2 1 1 1 0 -0 -1 -1 -1 -2
7 7 8 9 9 10 11 11 10 10 10 9 10 10 9 10 10 9 9 9 9 9 8 8 8 7 6 6 5 4 4 3 2 2 1 1 0 0 -0 -1 -1 -2 -2 -2
7 7 8 10 10 10 10 10 9 9 9 9 7 7 9 10 9 9 9 8 8 8 8 7 7 7 6 5 4 4 3 2 2 1 1 0 -0 -0 -1 -1 -2 -2 -3 -3
7 8 9 9 9 10 10 9 9 8 8 8 7 6 7 7 8 8 8 8 8 8 7 6 6 6 6 5 4 3 2 2 1 1 0 -0 -1 -1 -1 -2 -3 -3 -4 -4
7 7 8 10 10 10 10 10 9 8 7 8 7 6 6 6 6 7 7 7 7 7 6 5 5 5 5 4 3 2 2 1 0 0 -0 -1 -1 -2 -2 -3 -3 -4 -5 -6
7 8 8 10 10 10 10 9 9 8 7 7 7 6 6 6 6 6 6 6 6 6 6 5 4 4 3 3 2 2 1 0 -0 -1 -1 -1 -2 -2 -3 -4 -5 -6 -7 -8
8 9 8 9 9 9 9 9 8 8 6 6 7 6 6 6 6 6 6 6 6 6 5 4 3 3 2 2 1 1 0 -0 -1 -1 -2 -2 -2 -3 -4 -4 -5 -6 -7 -8
10 10 9 9 9 9 9 8 7 8 8 6 6 7 7 6 6 6 5 5 5 4 4 3 2 2 1 1 0 -0 -0 -1 -1 -2 -2 -3 -3 -4 -4 -4 -5 -6 -7 -7
9 9 8 8 8 8 8 8 7 7 7 7 7 6 6 6 5 5 5 4 4 3 3 2 2 1 0 -0 -0 -1 -1 -1 -2 -2 -3 -3 -4 -5 -6 -6 -6 -6 -7 -7
8 9 9 8 8 7 8 7 7 6 6 6 6 6 6 5 4 4 3 3 3 2 2 1 1 0 -0 -1 -1 -1 -2 -2 -3 -3 -4 -4 -5 -6 -6 -7 -7 -8 -8 -8
8 8 8 8 7 7 7 7 8 6 6 6 5 5 5 4 4 3 2 2 2 1 1 0 -0 -1 -1 -1 -2 -2 -2 -3 -3 -4 -5 -5 -6 -6 -7 -8 -8 -8 -8 -9
7 5 5 6 6 6 7 8 8 7 6 6 5 5 4 4 3 2 1 1 1 0 -0 -1 -1 -1 -2 -2 -2 -3 -3 -4 -4 -5 -5 -6 -6 -7 -8 -8 -9 -9 -9 -9
8 8 9 9 8 7 7 7 7 6 6 5 5 4 4 3 2 2 1 0 -0 -1 -1 -1 -2 -2 -2 -3 -3 -4 -4 -4 -5 -5 -6 -7 -7 -8 -8 -9 -9 -9 -9 -9
8 8 7 7 8 8 7 7 6 6 6 5 4 4 3 2 2 1 0 -0 -0 -1 -1 -2 -2 -3 -3 -3 -4 -4 -5 -5 -6 -6 -7 -7 -8 -8 -9 -9 -9 -10 -10 -10
7 7 7 7 7 7 7 6 6 5 5 4 4 3 2 1 1 0 -0 -1 -1 -2 -2 -3 -3 -3 -4 -4 -5 -5 -5 -6 -6 -7 -7 -8 -8 -9 -9 -9 -10 -10 -10 -10
6 6 6 6 6 6 6 6 6 5 4 4 4 3 2 1 0 -0 -1 -1 -2 -3 -3 -3 -4 -4 -4 -5 -5 -5 -6 -6 -7 -7 -8 -9 -9 -9 -10 -10 -10 -10 -10 -11
4 5 5 5 6 5 5 5 5 5 4 3 3 2 1 0 -0 -1 -2 -2 -3 -3 -4 -4 -4 -5 -5 -5 -6 -6 -7 -7 -8 -8 -9 -9 -9 -10 -10 -10 -10 -11 -11 -11
3 4 4 5 5 5 4 4 4 4 3 2 2 1 1 0 -1 -1 -2 -3 -3 -4 -4 -5 -5 -5 -5 -6 -6 -7 -7 -8 -8 -9 -9 -9 -10 -10 -10 -10 -11 -11 -11 -11
3 3 4 4 5 4 3 3 3 2 2 1 0 0 -0 -1 -2 -3 -3 -4 -4 -4 -5 -5 -5 -6 -6 -6 -7 -7 -8 -8 -9 -9 -9 -10 -10 -10 -11 -11 -11 -11 -11 -11
2 3 4 4 4 3 3 2 2 1 1 0 -1 -1 -2 -2 -2 -3 -4 -4 -5 -5 -5 -5 -6 -6 -7 -7 -7 -8 -8 -9 -9 -9 -10 -10 -10 -10 -11 -11 -11 -11 -11 -11
2 3 3 3 3 3 2 2 1 1 0 -0 -1 -2 -3 -3 -4 -4 -4 -5 -5 -5 -6 -6 -6 -7 -7 -8 -8 -8 -9 -9 -9 -10 -10 -10 -10 -11 -11 -11 -11 -11 -11 -11
2 2 2 2 2 2 2 1 1 0 -0 -1 -2 -3 -3 -4 -4 -5 -5 -5 -6 -6 -6 -7 -7 -7 -8 -8 -8 -9 -9 -9 -10 -10 -10 -10 -11 -11 -11 -11 -11 -11 -11 -11
Wind_Speed
16 17 16 19 20 19 21 19 15 16 21 24 14 6 4 7 13 15 15 16 16 16 15 14 14 14 14 14 13 14 14 13 11 10 10 9 8 7 7 6 5 3 3 3
14 17 18 22 21 20 20 19 20 21 23 16 6 3 6 10 14 16 16 16 15 16 16 16 16 15 15 14 12 13 13 12 11 10 9 8 8 7 6 5 4 3 3 4
9 11 12 11 12 14 12 12 12 15 14 8 4 7 11 13 14 15 16 16 16 16 16 15 15 16 16 13 13 13 13 12 10 10 9 8 7 6 5 4 3 3 3 4
6 7 6 6 4 7 10 11 12 12 10 6 4 4 6 9 11 12 14 15 15 14 14 13 13 14 14 14 13 13 12 11 10 9 9 7 7 6 4 2 2 2 4 5
3 5 8 8 3 3 4 5 9 11 8 2 2 4 2 5 8 9 11 12 13 13 15 16 16 16 16 14 13 13 12 11 9 9 9 7 6 4 3 2 2 3 4 5
4 4 5 6 4 1 2 4 3 6 7 4 3 1 1 6 9 11 12 13 14 15 16 16 15 16 17 15 13 12 11 10 9 9 8 7 5 3 2 1 2 4 5 5
7 5 7 8 6 1 2 4 3 3 4 5 3 1 3 7 9 12 14 15 16 17 15 15 16 17 16 15 12 11 11 11 9 8 8 7 5 3 2 2 4 5 6 7
6 5 7 5 3 1 3 4 3 2 2 4 4 6 7 9 12 14 16 16 16 16 14 13 14 16 16 13 12 12 12 11 9 8 6 5 5 3 3 3 5 5 6 7
8 9 5 3 4 4 3 3 3 1 2 8 7 7 9 10 11 13 15 14 14 17 16 12 11 14 16 13 13 13 12 10 8 7 6 5 4 3 3 3 3 5 5 6
5 8 8 6 4 2 3 2 3 4 6 6 10 11 12 12 12 13 13 14 15 17 16 13 11 12 14 14 13 13 11 9 7 6 5 4 3 2 2 3 4 5 6 7
6 8 6 4 1 3 5 7 8 9 9 11 15 14 13 13 13 13 13 12 13 15 16 14 13 13 12 12 13 12 10 7 6 5 4 3 2 2 3 3 5 7 5 5
7 6 5 3 3 6 7 7 8 12 12 10 11 15 14 13 12 12 13 13 14 15 15 14 14 13 10 10 11 11 8 6 4 4 3 2 3 4 6 6 11 12 13 13
4 1 2 4 5 5 7 8 9 10 12 13 11 12 14 14 11 12 13 13 14 14 14 14 13 11 9 8 9 9 8 6 4 3 2 2 2 3 6 7 10 12 14 17
3 4 4 4 5 8 11 12 13 13 12 12 12 13 14 14 13 13 12 12 13 14 13 13 13 10 7 8 9 8 7 6 4 3 2 1 2 3 4 6 8 8 12 17
1 2 5 8 10 11 11 13 15 14 13 12 11 12 13 14 14 12 11 12 14 14 12 11 11 8 6 8 8 8 6 4 3 2 1 2 3 3 4 5 6 8 8 11
6 8 10 11 12 11 11 13 15 13 12 12 12 12 13 14 14 12 10 10 12 12 10 10 9 7 7 8 8 6 5 5 4 2 2 2 3 4 4 5 6 7 8 9
8 8 8 10 11 10 9 9 12 13 12 13 13 13 14 15 14 12 9 9 10 10 8 9 8 7 7 7 7 5 4 4 4 3 2 3 3 4 4 5 6 8 8 11
4 6 8 12 14 13 12 12 13 14 12 12 14 13 13 13 13 11 10 11 12 10 8 7 8 8 7 7 6 4 3 2 2 2 2 3 4 4 5 6 7 8 9 11
5 8 11 11 12 14 14 14 13 12 13 13 14 13 12 12 12 11 10 11 11 9 5 6 11 8 7 6 6 4 3 2 2 2 3 6 5 5 5 6 7 8 9 10
8 11 14 14 13 14 15 14 15 14 12 13 15 15 13 11 11 11 11 9 5 5 6 8 8 7 6 5 6 3 3 2 2 3 3 4 5 5 6 7 8 9 9 9
11 14 15 16 14 13 14 15 16 15 12 12 14 15 13 11 9 9 10 8 4 6 8 10 6 5 4 5 5 3 3 2 2 3 4 4 5 6 7 7 8 9 9 9
11 14 15 16 16 14 11 12 14 16 14 13 14 14 14 12 10 9 8 6 6 9 7 5 4 5 6 6 3 3 3 3 3 3 4 5 5 6 7 8 8 9 9 9
11 13 15 15 17 16 14 12 13 14 14 13 13 13 12 9 7 8 7 4 5 9 6 4 6 7 7 4 3 3 3 3 4 4 5 5 5 6 7 8 8 8 9 9
13 14 14 15 17 18 16 12 12 12 13 12 11 11 11 9 7 5 6 10 10 10 5 6 7 7 6 3 3 3 3 4 5 5 5 5 5 6 7 7 8 8 9 10
13 14 15 16 15 13 14 15 14 14 13 11 10 9 7 6 7 6 6 7 10 9 5 6 7 6 4 3 3 3 4 5 6 6 5 5 6 6 7 7 8 9 9 10
11 11 10 10 12 12 12 11 10 9 10 10 8 7 7 8 9 7 6 7 8 7 5 4 4 4 3 3 4 4 5 6 7 6 6 7 7 7 7 8 9 9 9 10
12 11 11 11 10 9 9 10 11 10 9 10 8 6 7 7 7 7 6 5 5 4 3 3 3 3 3 4 4 5 5 5 6 6 6 6 6 7 8 9 9 9 9 10
Wind_Direction
255 266 269 266 261 247 237 238 250 265 274 284 294 266 184 149 141 140 142 144 146 143 139 135 133 130 129 128 127 127 124 122 122 120 117 114 111 107 102 94 88 73 46 10
269 265 267 269 264 253 245 241 246 264 275 278 278 162 151 155 155 155 155 153 150 146 143 143 141 138 133 131 129 126 124 124 125 122 117 114 111 107 99 87 72 48 23 354
277 286 286 269 255 239 231 225 228 246 259 272 258 192 176 171 170 168 162 158 156 155 152 148 145 142 138 134 129 124 125 127 127 123 118 115 112 102 92 81 53 21 356 340
285 305 275 267 278 223 227 234 222 242 264 276 248 193 175 174 171 166 162 158 154 149 142 136 132 132 128 128 128 127 127 128 127 123 118 113 104 95 84 71 35 358 332 325
272 288 286 296 288 189 208 255 231 238 254 259 140 95 117 166 160 158 154 149 145 141 138 137 137 136 132 129 128 130 132 133 130 126 121 113 103 92 80 49 8 335 321 324
269 291 283 288 293 251 184 298 260 230 240 205 179 77 227 156 140 136 134 135 135 134 134 137 139 138 135 136 136 138 136 130 123 120 118 113 106 95 71 33 345 333 326 322
240 262 274 273 286 192 148 279 312 251 237 191 200 163 91 114 118 128 129 131 132 135 139 142 143 139 137 138 138 133 126 119 114 112 113 111 101 86 56 20 357 343 326 316
192 226 260 297 355 152 259 296 314 290 240 159 111 77 82 97 113 121 124 127 131 130 130 134 140 137 133 132 128 124 120 115 112 107 104 102 93 72 44 19 354 337 322 315
201 222 251 280 269 287 285 292 318 326 106 126 111 97 95 98 106 113 120 121 123 125 123 122 128 133 131 129 127 122 116 114 111 103 92 90 84 57 23 6 344 321 310 309
251 263 263 265 263 305 11 24 40 84 103 113 116 114 108 106 106 108 111 116 122 122 122 116 110 114 123 126 124 120 118 115 112 104 91 68 60 48 12 336 320 312 310 310
254 272 290 284 214 122 90 85 83 77 85 110 117 114 114 111 110 111 112 114 119 121 119 114 110 110 116 121 120 116 114 112 106 97 90 62 32 351 321 277 282 310 303 302
224 234 212 251 123 124 115 106 106 105 95 89 109 116 112 107 108 111 111 111 110 111 113 111 111 109 109 114 118 119 115 109 102 94 78 54 8 335 324 321 323 324 324 323
222 138 130 104 96 100 108 107 103 102 110 108 101 108 111 109 105 105 105 109 112 113 112 111 109 107 107 109 110 112 115 114 103 93 72 29 354 335 325 326 325 326 327 328
160 135 134 142 123 111 113 108 100 94 94 101 106 106 107 106 103 102 103 106 110 109 108 109 108 105 107 107 104 103 103 102 101 92 64 2 325 312 306 313 320 318 324 327
65 160 142 120 112 113 115 116 109 105 104 99 101 107 110 109 105 103 104 107 106 104 106 109 109 107 106 105 104 104 101 94 89 76 35 338 317 310 305 305 307 310 314 322
89 90 112 123 127 128 127 124 120 118 115 112 107 103 103 104 105 104 104 112 114 116 117 114 112 113 109 105 103 96 86 77 77 61 14 338 322 315 314 312 312 313 316 320
128 135 140 142 142 138 131 126 127 126 121 117 115 113 110 107 103 98 90 87 98 103 107 112 112 109 103 103 102 97 84 58 45 36 355 327 317 316 315 313 312 312 311 315
174 166 159 153 147 135 122 117 120 121 119 121 120 116 114 115 116 113 108 102 96 84 80 98 108 103 98 98 96 92 82 63 32 359 338 324 325 324 316 312 310 309 311 315
128 131 129 128 130 129 125 122 118 116 120 122 117 111 108 110 115 115 111 107 107 104 97 108 114 101 97 98 96 83 75 52 23 357 338 336 339 321 314 311 308 308 310 315
114 117 117 115 116 122 122 120 118 116 117 118 114 111 107 108 112 109 99 86 81 113 121 110 101 96 92 88 90 78 68 46 13 347 334 326 319 314 312 312 312 311 312 314
120 120 119 117 112 112 119 123 122 119 117 117 118 118 115 109 107 107 106 97 79 102 107 108 97 97 93 87 78 70 55 29 0 338 325 318 314 311 310 311 312 313 312 313
122 122 120 119 116 109 107 112 117 116 112 110 111 115 114 109 100 88 79 101 114 113 99 92 95 100 93 81 66 53 31 4 340 323 312 306 305 307 309 310 309 309 309 310
120 121 121 120 117 110 101 100 105 111 113 116 119 119 115 111 107 112 106 99 105 108 99 92 96 88 76 67 49 29 4 341 324 312 303 298 297 300 302 303 303 304 305 306
119 118 118 117 115 110 104 98 97 99 100 98 101 108 113 107 83 71 106 119 114 102 85 87 80 70 61 51 23 358 336 319 306 298 296 297 296 296 297 299 301 303 303 303
119 121 123 122 115 114 115 112 104 101 98 95 86 78 75 89 109 106 93 98 104 93 69 62 60 52 44 17 352 330 316 303 299 304 307 305 301 300 300 299 300 302 302 302
120 118 114 113 120 126 127 123 118 117 115 108 93 83 87 90 94 93 87 83 85 87 75 51 31 25 9 346 327 316 309 309 314 312 301 299 298 300 300 301 301 301 300 299
110 110 109 106 106 114 119 120 122 122 122 120 112 102 100 98 95 92 88 81 74 67 57 37 18 358 340 328 318 311 307 303 301 300 298 295 294 295 297 297 298 298 298 297
Height
1419 1415 1413 1411 1406 1404 1403 1400 1397 1384 1377 1364 1361 1361 1362 1362 1362 1366 1370 1375 1381 1387 1394 1403 1411 1419 1427 1434 1442 1448 1454 1459 1463 1467 1470 1472 1474 1475 1476 1476 1476 1475 1473 1471
1412 1406 1404 1398 1391 1389 1388 1389 1387 1384 1374 1362 1361 1360 1362 1363 1364 1367 1372 1377 1383 1389 1396 1403 1411 1419 1427 1435 1442 1448 1454 1458 1462 1466 1468 1470 1472 1473 1474 1474 1473 1472 1470 1468
1407 1399 1398 1388 1378 1377 1378 1376 1378 1377 1367 1360 1361 1360 1361 1362 1365 1368 1372 1377 1383 1389 1397 1404 1412 1420 1427 1435 1442 1449 1454 1458 1462 1465 1467 1469 1470 1471 1471 1471 1470 1469 1466 1463
1407 1401 1390 1378 1369 1368 1369 1368 1369 1366 1361 1360 1358 1359 1360 1363 1365 1369 1374 1379 1385 1391 1399 1406 1414 1422 1430 1437 1443 1448 1453 1457 1461 1463 1465 1467 1468 1469 1469 1469 1467 1465 1462 1459
1407 1399 1387 1374 1368 1368 1369 1366 1362 1361 1359 1360 1359 1359 1362 1363 1366 1370 1375 1380 1386 1393 1400 1407 1415 1423 1430 1437 1443 1448 1453 1456 1459 1462 1464 1465 1466 1467 1467 1466 1464 1462 1458 1455
1405 1399 1389 1375 1367 1365 1368 1366 1358 1358 1358 1360 1359 1361 1362 1362 1366 1372 1377 1382 1388 1394 1401 1409 1416 1424 1430 1437 1443 1448 1452 1455 1458 1460 1462 1464 1465 1465 1464 1463 1460 1458 1455 1451
1402 1399 1387 1373 1367 1367 1372 1367 1359 1358 1358 1359 1359 1360 1362 1363 1367 1372 1378 1383 1389 1395 1402 1409 1416 1424 1430 1437 1442 1447 1451 1454 1457 1459 1461 1462 1463 1462 1461 1459 1457 1454 1451 1448
1398 1396 1387 1369 1367 1368 1367 1361 1359 1357 1357 1358 1360 1361 1362 1365 1368 1373 1378 1385 1390 1396 1403 1410 1417 1424 1431 1437 1443 1447 1451 1454 1456 1458 1460 1461 1461 1460 1458 1456 1453 1449 1446 1442
1387 1381 1372 1369 1368 1366 1364 1361 1359 1357 1356 1357 1359 1361 1364 1367 1371 1376 1381 1386 1392 1398 1405 1412 1420 1426 1432 1438 1443 1447 1450 1453 1456 1457 1459 1459 1458 1457 1455 1452 1449 1445 1441 1436
1380 1373 1368 1366 1365 1364 1362 1361 1359 1357 1357 1358 1360 1363 1366 1370 1374 1379 1384 1389 1395 1401 1407 1414 1422 1429 1434 1439 1443 1447 1450 1453 1455 1456 1457 1457 1456 1454 1451 1448 1445 1440 1436 1432
1375 1369 1365 1362 1363 1363 1362 1361 1360 1360 1360 1361 1363 1366 1370 1374 1378 1383 1388 1394 1400 1405 1411 1417 1424 1431 1436 1441 1444 1447 1450 1453 1454 1455 1455 1454 1453 1451 1448 1445 1442 1437 1433 1428
1369 1364 1364 1363 1362 1363 1363 1363 1363 1363 1364 1367 1369 1371 1375 1379 1384 1389 1394 1399 1404 1410 1416 1422 1428 1433 1438 1442 1445 1448 1450 1452 1453 1453 1453 1452 1450 1448 1445 1443 1439 1435 1430 1426
1361 1361 1361 1361 1362 1363 1364 1365 1366 1368 1369 1371 1375 1378 1381 1385 1390 1395 1400 1405 1410 1415 1420 1426 1431 1436 1440 1443 1446 1448 1450 1451 1451 1451 1450 1449 1447 1444 1441 1439 1436 1431 1427 1422
1359 1360 1360 1361 1362 1364 1366 1368 1370 1372 1375 1378 1381 1385 1388 1392 1397 1401 1406 1411 1416 1420 1425 1430 1434 1438 1441 1444 1446 1448 1449 1450 1450 1449 1448 1446 1443 1440 1436 1432 1429 1425 1422 1417
1357 1358 1359 1360 1362 1365 1368 1370 1372 1376 1380 1384 1387 1391 1394 1398 1402 1407 1412 1417 1421 1425 1429 1433 1436 1440 1442 1445 1446 1448 1448 1448 1448 1447 1445 1443 1440 1437 1433 1429 1425 1420 1416 1411
1355 1357 1358 1360 1363 1366 1369 1373 1375 1379 1384 1388 1392 1396 1400 1403 1407 1412 1417 1422 1425 1428 1432 1435 1438 1441 1443 1445 1446 1447 1447 1447 1446 1444 1442 1439 1436 1433 1429 1425 1421 1416 1411 1406
1355 1356 1358 1361 1364 1368 1371 1375 1378 1382 1387 1391 1396 1400 1404 1407 1412 1416 1421 1425 1429 1431 1434 1437 1440 1442 1443 1445 1446 1446 1445 1444 1443 1441 1439 1436 1433 1429 1426 1422 1417 1413 1408 1404
1355 1356 1358 1360 1363 1368 1373 1378 1382 1386 1391 1395 1399 1404 1407 1411 1414 1419 1423 1427 1430 1433 1436 1438 1440 1442 1443 1444 1444 1444 1443 1442 1440 1438 1435 1432 1429 1426 1422 1418 1414 1409 1404 1400
1354 1356 1359 1362 1367 1371 1375 1380 1386 1390 1395 1399 1403 1407 1411 1415 1418 1422 1425 1429 1432 1434 1437 1439 1441 1442 1443 1443 1443 1442 1441 1439 1437 1435 1432 1429 1426 1423 1419 1415 1410 1406 1401 1396
1354 1357 1360 1364 1369 1374 1379 1384 1389 1393 1398 1402 1406 1409 1413 1417 1421 1424 1427 1431 1433 1436 1438 1439 1441 1441 1442 1441 1441 1440 1438 1436 1434 1431 1429 1426 1422 1419 1415 1411 1407 1402 1397 1393
1355 1358 1361 1366 1371 1377 1382 1387 1392 1396 1401 1405 1409 1412 1415 1419 1423 1426 1429 1432 1434 1436 1438 1439 1440 1440 1440 1440 1439 1437 1435 1433 1431 1428 1425 1422 1419 1415 1412 1407 1403 1399 1394 1390
1356 1360 1364 1368 1373 1379 1385 1390 1395 1399 1403 1407 1411 1415 1418 1421 1425 1428 1431 1433 1435 1437 1438 1439 1439 1439 1439 1438 1436 1435 1433 1430 1428 1425 1422 1419 1415 1411 1408 1404 1400 1395 1391 1387
1358 1362 1366 1371 1376 1381 1387 1393 1398 1402 1406 1410 1413 1417 1420 1423 1426 1429 1431 1434 1435 1436 1437 1438 1438 1438 1437 1436 1434 1432 1430 1427 1425 1422 1419 1415 1412 1408 1404 1400 1396 1392 1388 1384
1360 1364 1369 1374 1379 1384 1389 1395 1400 1404 1408 1412 1416 1419 1422 1425 1427 1430 1432 1434 1435 1436 1437 1437 1437 1436 1435 1433 1432 1429 1427 1424 1422 1419 1415 1412 1408 1405 1401 1397 1393 1389 1385 1381
1363 1367 1372 1377 1382 1386 1392 1397 1401 1406 1410 1413 1417 1420 1424 1427 1429 1430 1432 1434 1435 1436 1436 1436 1435 1434 1433 1431 1429 1427 1424 1421 1418 1415 1412 1408 1405 1401 1398 1394 1390 1386 1383 1379
1366 1370 1375 1380 1385 1389 1393 1398 1402 1407 1411 1414 1418 1421 1424 1427 1429 1431 1433 1434 1435 1435 1435 1434 1434 1432 1430 1428 1426 1424 1421 1418 1415 1412 1408 1405 1401 1398 1394 1391 1387 1384 1380 1377
1369 1373 1378 1383 1388 1392 1396 1400 1404 1408 1412 1416 1418 1422 1425 1427 1429 1431 1433 1434 1434 1434 1434 1433 1432 1430 1428 1426 1423 1421 1418 1415 1411 1408 1405 1401 1398 1395 1391 1388 1385 1382 1378 1375